contact:dominique.lefevre@mio.osupytheas.fr, maurice.libes@osupytheas.fr, didier.mallarino@osupytheas.fr
Project:EMSO http://www.emso-fr.org/EMSO-France
Depth: 2436.0 m
Title:EMSO Ligure Ouest : Data MII capteur CSTAR
DateTime,Latitude,Longitude,Instrument_Serial,Reference_Counts,Signal_Counts,Corrected_Signal_raw_counts,Calculated_Beam_c_inverse_meters,Internal_thermistor_counts
DateTime,Latitude,Longitude,Instrument_Serial,Reference_Counts,Signal_Counts,Corrected_Signal_raw_counts,Calculated_Beam_c_inverse_meters,Internal_thermistor_counts
2020-07-15T00:00:15,42.805,6.029,CST-1368DR,6077,8511,15122,0.129,551
2020-07-15T00:03:16,42.805,6.029,CST-1368DR,6077,8511,15121,0.129,551
2020-07-15T00:06:18,42.805,6.029,CST-1368DR,6076,8510,15123,0.128,551
2020-07-15T00:09:20,42.805,6.029,CST-1368DR,6077,8511,15122,0.129,551
2020-07-15T00:12:21,42.805,6.029,CST-1368DR,6077,8511,15122,0.129,551
2020-07-15T00:15:23,42.805,6.029,CST-1368DR,6077,8510,15120,0.129,551
2020-07-15T00:18:25,42.805,6.029,CST-1368DR,6076,8511,15123,0.128,551
2020-07-15T00:21:27,42.805,6.029,CST-1368DR,6076,8510,15122,0.129,551
2020-07-15T00:24:28,42.805,6.029,CST-1368DR,6077,8510,15119,0.129,551
2020-07-15T00:27:30,42.805,6.029,CST-1368DR,6076,8511,15124,0.128,551
2020-07-15T00:30:32,42.805,6.029,CST-1368DR,6077,8511,15121,0.129,551
2020-07-15T00:33:33,42.805,6.029,CST-1368DR,6076,8510,15122,0.129,551
2020-07-15T00:36:35,42.805,6.029,CST-1368DR,6076,8511,15124,0.128,551
2020-07-15T00:39:37,42.805,6.029,CST-1368DR,6076,8511,15124,0.128,551
2020-07-15T00:42:38,42.805,6.029,CST-1368DR,6076,8510,15122,0.129,551
2020-07-15T00:45:40,42.805,6.029,CST-1368DR,6076,8511,15123,0.128,551
2020-07-15T00:48:42,42.805,6.029,CST-1368DR,6076,8508,15119,0.129,551
2020-07-15T00:51:43,42.805,6.029,CST-1368DR,6076,8509,15120,0.129,551
2020-07-15T00:54:45,42.805,6.029,CST-1368DR,6076,8509,15121,0.129,551
2020-07-15T00:57:47,42.805,6.029,CST-1368DR,6076,8509,15120,0.129,551
2020-07-15T01:00:48,42.805,6.029,CST-1368DR,6076,8509,15120,0.129,550
2020-07-15T01:03:50,42.805,6.029,CST-1368DR,6076,8508,15118,0.130,551
2020-07-15T01:06:52,42.805,6.029,CST-1368DR,6076,8508,15119,0.129,551
2020-07-15T01:09:53,42.805,6.029,CST-1368DR,6076,8509,15121,0.129,551
2020-07-15T01:12:55,42.805,6.029,CST-1368DR,6076,8506,15116,0.130,551
2020-07-15T01:15:57,42.805,6.029,CST-1368DR,6076,8509,15120,0.129,551
2020-07-15T01:18:58,42.805,6.029,CST-1368DR,6076,8509,15120,0.129,551
2020-07-15T01:22:00,42.805,6.029,CST-1368DR,6076,8509,15121,0.129,551
2020-07-15T01:25:02,42.805,6.029,CST-1368DR,6076,8509,15121,0.129,551
2020-07-15T01:28:04,42.805,6.029,CST-1368DR,6076,8510,15122,0.129,551
2020-07-15T01:31:05,42.805,6.029,CST-1368DR,6076,8510,15121,0.129,551
2020-07-15T01:34:07,42.805,6.029,CST-1368DR,6076,8510,15122,0.129,551
2020-07-15T01:37:08,42.805,6.029,CST-1368DR,6076,8510,15121,0.129,551
2020-07-15T01:40:10,42.805,6.029,CST-1368DR,6076,8509,15120,0.129,551
2020-07-15T01:43:12,42.805,6.029,CST-1368DR,6076,8508,15119,0.129,551
2020-07-15T01:46:14,42.805,6.029,CST-1368DR,6076,8509,15120,0.129,551
2020-07-15T01:49:15,42.805,6.029,CST-1368DR,6076,8509,15121,0.129,551
2020-07-15T01:52:17,42.805,6.029,CST-1368DR,6076,8510,15121,0.129,551
2020-07-15T01:55:19,42.805,6.029,CST-1368DR,6076,8509,15120,0.129,551
2020-07-15T01:58:21,42.805,6.029,CST-1368DR,6076,8509,15120,0.129,551
2020-07-15T02:01:22,42.805,6.029,CST-1368DR,6076,8509,15120,0.129,551
2020-07-15T02:04:24,42.805,6.029,CST-1368DR,6076,8509,15120,0.129,551
2020-07-15T02:07:26,42.805,6.029,CST-1368DR,6076,8509,15120,0.129,551
2020-07-15T02:10:28,42.805,6.029,CST-1368DR,6076,8508,15119,0.129,551
2020-07-15T02:13:29,42.805,6.029,CST-1368DR,6076,8510,15122,0.129,551
2020-07-15T02:16:31,42.805,6.029,CST-1368DR,6076,8509,15120,0.129,551
2020-07-15T02:19:33,42.805,6.029,CST-1368DR,6076,8508,15119,0.129,551
2020-07-15T02:22:35,42.805,6.029,CST-1368DR,6076,8509,15120,0.129,551
2020-07-15T02:25:36,42.805,6.029,CST-1368DR,6076,8509,15120,0.129,551
2020-07-15T02:28:38,42.805,6.029,CST-1368DR,6076,8508,15119,0.129,551
2020-07-15T02:31:40,42.805,6.029,CST-1368DR,6076,8509,15120,0.129,551
2020-07-15T02:34:41,42.805,6.029,CST-1368DR,6076,8510,15122,0.129,551
2020-07-15T02:37:43,42.805,6.029,CST-1368DR,6076,8509,15120,0.129,551
2020-07-15T02:40:45,42.805,6.029,CST-1368DR,6076,8509,15120,0.129,551
2020-07-15T02:43:46,42.805,6.029,CST-1368DR,6076,8507,15116,0.130,551
2020-07-15T02:46:48,42.805,6.029,CST-1368DR,6076,8509,15121,0.129,551
2020-07-15T02:49:50,42.805,6.029,CST-1368DR,6076,8508,15118,0.130,551
2020-07-15T02:52:51,42.805,6.029,CST-1368DR,6076,8509,15120,0.129,551
2020-07-15T02:55:53,42.805,6.029,CST-1368DR,6076,8507,15117,0.130,551
2020-07-15T02:58:55,42.805,6.029,CST-1368DR,6076,8509,15120,0.129,551
2020-07-15T03:01:56,42.805,6.029,CST-1368DR,6076,8508,15119,0.129,551
2020-07-15T03:04:58,42.805,6.029,CST-1368DR,6076,8508,15119,0.129,551
2020-07-15T03:08:00,42.805,6.029,CST-1368DR,6076,8509,15120,0.129,551
2020-07-15T03:11:01,42.805,6.029,CST-1368DR,6076,8509,15120,0.129,551
2020-07-15T03:14:03,42.805,6.029,CST-1368DR,6076,8509,15120,0.129,551
2020-07-15T03:17:05,42.805,6.029,CST-1368DR,6076,8509,15120,0.129,551
2020-07-15T03:20:06,42.805,6.029,CST-1368DR,6076,8509,15120,0.129,551
2020-07-15T03:23:08,42.805,6.029,CST-1368DR,6076,8509,15120,0.129,551
2020-07-15T03:26:10,42.805,6.029,CST-1368DR,6076,8508,15119,0.129,551
2020-07-15T03:29:12,42.805,6.029,CST-1368DR,6076,8509,15120,0.129,551
2020-07-15T03:32:13,42.805,6.029,CST-1368DR,6076,8509,15121,0.129,551
2020-07-15T03:35:15,42.805,6.029,CST-1368DR,6076,8509,15120,0.129,551
2020-07-15T03:38:17,42.805,6.029,CST-1368DR,6076,8507,15117,0.130,551
2020-07-15T03:41:18,42.805,6.029,CST-1368DR,6076,8507,15117,0.130,550
2020-07-15T03:44:20,42.805,6.029,CST-1368DR,6076,8507,15116,0.130,551
2020-07-15T03:47:22,42.805,6.029,CST-1368DR,6076,8509,15120,0.129,551
2020-07-15T03:50:23,42.805,6.029,CST-1368DR,6076,8508,15119,0.129,551
2020-07-15T03:53:25,42.805,6.029,CST-1368DR,6076,8509,15120,0.129,551
2020-07-15T03:56:27,42.805,6.029,CST-1368DR,6076,8509,15120,0.129,551
2020-07-15T03:59:29,42.805,6.029,CST-1368DR,6076,8509,15120,0.129,551
2020-07-15T04:02:31,42.805,6.029,CST-1368DR,6076,8509,15120,0.129,551
2020-07-15T04:05:32,42.805,6.029,CST-1368DR,6076,8509,15120,0.129,551
2020-07-15T04:08:34,42.805,6.029,CST-1368DR,6076,8508,15118,0.130,551
2020-07-15T04:11:36,42.805,6.029,CST-1368DR,6076,8509,15120,0.129,551
2020-07-15T04:14:37,42.805,6.029,CST-1368DR,6076,8509,15120,0.129,551
2020-07-15T04:17:39,42.805,6.029,CST-1368DR,6076,8508,15119,0.129,551
2020-07-15T04:20:41,42.805,6.029,CST-1368DR,6076,8508,15118,0.130,550
2020-07-15T04:23:42,42.805,6.029,CST-1368DR,6076,8507,15117,0.130,551
2020-07-15T04:26:44,42.805,6.029,CST-1368DR,6076,8508,15119,0.129,551
2020-07-15T04:29:46,42.805,6.029,CST-1368DR,6076,8508,15119,0.129,551
2020-07-15T04:32:48,42.805,6.029,CST-1368DR,6076,8507,15117,0.130,551
2020-07-15T04:35:49,42.805,6.029,CST-1368DR,6076,8508,15119,0.129,551
2020-07-15T04:38:51,42.805,6.029,CST-1368DR,6076,8508,15119,0.129,551
2020-07-15T04:41:53,42.805,6.029,CST-1368DR,6076,8508,15119,0.129,551
2020-07-15T04:44:54,42.805,6.029,CST-1368DR,6076,8508,15119,0.129,551
2020-07-15T04:47:56,42.805,6.029,CST-1368DR,6076,8508,15119,0.129,551
2020-07-15T04:50:58,42.805,6.029,CST-1368DR,6076,8508,15118,0.130,551
2020-07-15T04:53:59,42.805,6.029,CST-1368DR,6076,8508,15119,0.129,551
2020-07-15T04:57:01,42.805,6.029,CST-1368DR,6076,8505,15112,0.131,551
2020-07-15T05:00:03,42.805,6.029,CST-1368DR,6076,8508,15119,0.129,550
2020-07-15T05:03:04,42.805,6.029,CST-1368DR,6076,8507,15117,0.130,551
2020-07-15T05:06:06,42.805,6.029,CST-1368DR,6076,8508,15119,0.129,551
2020-07-15T05:09:08,42.805,6.029,CST-1368DR,6076,8508,15118,0.130,551
2020-07-15T05:12:10,42.805,6.029,CST-1368DR,6076,8508,15119,0.129,551
2020-07-15T05:15:11,42.805,6.029,CST-1368DR,6076,8508,15119,0.129,551
2020-07-15T05:18:13,42.805,6.029,CST-1368DR,6076,8507,15117,0.130,551
2020-07-15T05:21:15,42.805,6.029,CST-1368DR,6076,8507,15117,0.130,551
2020-07-15T05:24:16,42.805,6.029,CST-1368DR,6076,8506,15114,0.131,551
2020-07-15T05:27:18,42.805,6.029,CST-1368DR,6076,8509,15120,0.129,551
2020-07-15T05:30:20,42.805,6.029,CST-1368DR,6076,8508,15118,0.130,551
2020-07-15T05:33:21,42.805,6.029,CST-1368DR,6075,8509,15122,0.129,551
2020-07-15T05:36:23,42.805,6.029,CST-1368DR,6075,8508,15121,0.129,551
2020-07-15T05:39:25,42.805,6.029,CST-1368DR,6076,8509,15120,0.129,551
2020-07-15T05:42:26,42.805,6.029,CST-1368DR,6076,8506,15116,0.130,551
2020-07-15T05:45:28,42.805,6.029,CST-1368DR,6076,8507,15117,0.130,551
2020-07-15T05:48:30,42.805,6.029,CST-1368DR,6075,8507,15120,0.129,551
2020-07-15T05:51:31,42.805,6.029,CST-1368DR,6075,8509,15122,0.129,551
2020-07-15T05:54:33,42.805,6.029,CST-1368DR,6075,8508,15121,0.129,551
2020-07-15T05:57:35,42.805,6.029,CST-1368DR,6075,8509,15122,0.129,551
2020-07-15T06:00:37,42.805,6.029,CST-1368DR,6075,8509,15122,0.129,551
2020-07-15T06:03:38,42.805,6.029,CST-1368DR,6075,8509,15122,0.129,551
2020-07-15T06:06:40,42.805,6.029,CST-1368DR,6076,8509,15120,0.129,551
2020-07-15T06:09:42,42.805,6.029,CST-1368DR,6075,8508,15121,0.129,551
2020-07-15T06:12:43,42.805,6.029,CST-1368DR,6075,8509,15122,0.129,551
2020-07-15T06:15:45,42.805,6.029,CST-1368DR,6075,8509,15123,0.128,551
2020-07-15T06:18:47,42.805,6.029,CST-1368DR,6075,8507,15118,0.130,551
2020-07-15T06:21:48,42.805,6.029,CST-1368DR,6075,8508,15120,0.129,551
2020-07-15T06:24:50,42.805,6.029,CST-1368DR,6075,8507,15120,0.129,551
2020-07-15T06:27:52,42.805,6.029,CST-1368DR,6075,8508,15121,0.129,551
2020-07-15T06:30:53,42.805,6.029,CST-1368DR,6075,8508,15120,0.129,551
2020-07-15T06:33:55,42.805,6.029,CST-1368DR,6075,8506,15118,0.130,551
2020-07-15T06:36:57,42.805,6.029,CST-1368DR,6075,8508,15121,0.129,551
2020-07-15T06:39:59,42.805,6.029,CST-1368DR,6075,8508,15121,0.129,551
2020-07-15T06:43:00,42.805,6.029,CST-1368DR,6075,8508,15121,0.129,551
2020-07-15T06:46:02,42.805,6.029,CST-1368DR,6075,8507,15118,0.130,551
2020-07-15T06:49:04,42.805,6.029,CST-1368DR,6075,8507,15119,0.129,551
2020-07-15T06:52:05,42.805,6.029,CST-1368DR,6075,8506,15117,0.130,551
2020-07-15T06:55:07,42.805,6.029,CST-1368DR,6075,8505,15116,0.130,551
2020-07-15T06:58:09,42.805,6.029,CST-1368DR,6075,8506,15117,0.130,551
2020-07-15T07:01:10,42.805,6.029,CST-1368DR,6075,8506,15117,0.130,551
2020-07-15T07:04:12,42.805,6.029,CST-1368DR,6075,8507,15118,0.130,551
2020-07-15T07:07:14,42.805,6.029,CST-1368DR,6075,8508,15120,0.129,551
2020-07-15T07:10:15,42.805,6.029,CST-1368DR,6075,8507,15118,0.130,551
2020-07-15T07:13:17,42.805,6.029,CST-1368DR,6075,8507,15120,0.129,551
2020-07-15T07:16:19,42.805,6.029,CST-1368DR,6075,8508,15121,0.129,551
2020-07-15T07:19:20,42.805,6.029,CST-1368DR,6075,8507,15119,0.129,551
2020-07-15T07:22:22,42.805,6.029,CST-1368DR,6075,8509,15122,0.129,551
2020-07-15T07:25:24,42.805,6.029,CST-1368DR,6075,8507,15119,0.129,551
2020-07-15T07:28:25,42.805,6.029,CST-1368DR,6075,8507,15120,0.129,551
2020-07-15T07:31:27,42.805,6.029,CST-1368DR,6075,8508,15120,0.129,551
2020-07-15T07:34:29,42.805,6.029,CST-1368DR,6075,8505,15116,0.130,551
2020-07-15T07:37:31,42.805,6.029,CST-1368DR,6075,8508,15120,0.129,551
2020-07-15T07:40:32,42.805,6.029,CST-1368DR,6075,8507,15118,0.130,551
2020-07-15T07:43:34,42.805,6.029,CST-1368DR,6075,8507,15119,0.129,551
2020-07-15T07:46:36,42.805,6.029,CST-1368DR,6075,8506,15117,0.130,551
2020-07-15T07:49:37,42.805,6.029,CST-1368DR,6075,8506,15118,0.130,551
2020-07-15T07:52:40,42.805,6.029,CST-1368DR,6075,8507,15119,0.129,551
2020-07-15T07:55:41,42.805,6.029,CST-1368DR,6075,8507,15119,0.129,551
2020-07-15T07:58:43,42.805,6.029,CST-1368DR,6075,8507,15120,0.129,551
2020-07-15T08:01:45,42.805,6.029,CST-1368DR,6075,8507,15118,0.130,550
2020-07-15T08:04:47,42.805,6.029,CST-1368DR,6075,8507,15119,0.129,551
2020-07-15T08:07:48,42.805,6.029,CST-1368DR,6075,8507,15118,0.130,551
2020-07-15T08:10:50,42.805,6.029,CST-1368DR,6075,8507,15119,0.129,551
2020-07-15T08:13:52,42.805,6.029,CST-1368DR,6075,8508,15121,0.129,551
2020-07-15T08:16:53,42.805,6.029,CST-1368DR,6075,8508,15120,0.129,551
2020-07-15T08:19:55,42.805,6.029,CST-1368DR,6075,8508,15121,0.129,551
2020-07-15T08:22:57,42.805,6.029,CST-1368DR,6075,8507,15119,0.129,551
2020-07-15T08:25:58,42.805,6.029,CST-1368DR,6075,8508,15120,0.129,551
2020-07-15T08:29:00,42.805,6.029,CST-1368DR,6075,8508,15120,0.129,551
2020-07-15T08:32:02,42.805,6.029,CST-1368DR,6075,8506,15118,0.130,551
2020-07-15T08:35:03,42.805,6.029,CST-1368DR,6075,8506,15117,0.130,551
2020-07-15T08:38:05,42.805,6.029,CST-1368DR,6075,8508,15120,0.129,551
2020-07-15T08:41:07,42.805,6.029,CST-1368DR,6075,8507,15119,0.129,551
2020-07-15T08:44:08,42.805,6.029,CST-1368DR,6075,8508,15120,0.129,551
2020-07-15T08:47:10,42.805,6.029,CST-1368DR,6075,8508,15120,0.129,551
2020-07-15T08:50:12,42.805,6.029,CST-1368DR,6075,8507,15119,0.129,551
2020-07-15T08:53:13,42.805,6.029,CST-1368DR,6075,8507,15119,0.129,551
2020-07-15T08:56:15,42.805,6.029,CST-1368DR,6075,8506,15118,0.130,551
2020-07-15T08:59:17,42.805,6.029,CST-1368DR,6075,8508,15120,0.129,551
2020-07-15T09:02:19,42.805,6.029,CST-1368DR,6075,8507,15118,0.130,551
2020-07-15T09:05:20,42.805,6.029,CST-1368DR,6075,8505,15116,0.130,551
2020-07-15T09:08:22,42.805,6.029,CST-1368DR,6075,8507,15120,0.129,551
2020-07-15T09:11:24,42.805,6.029,CST-1368DR,6075,8508,15120,0.129,551
2020-07-15T09:14:25,42.805,6.029,CST-1368DR,6075,8508,15121,0.129,551
2020-07-15T09:17:27,42.805,6.029,CST-1368DR,6075,8507,15119,0.129,551
2020-07-15T09:20:29,42.805,6.029,CST-1368DR,6075,8507,15119,0.129,551
2020-07-15T09:23:30,42.805,6.029,CST-1368DR,6075,8507,15119,0.129,551
2020-07-15T09:26:32,42.805,6.029,CST-1368DR,6075,8506,15118,0.130,551
2020-07-15T09:29:34,42.805,6.029,CST-1368DR,6075,8507,15119,0.129,551
2020-07-15T09:32:35,42.805,6.029,CST-1368DR,6075,8508,15120,0.129,551
2020-07-15T09:35:37,42.805,6.029,CST-1368DR,6075,8508,15121,0.129,551
2020-07-15T09:38:39,42.805,6.029,CST-1368DR,6075,8507,15118,0.130,551
2020-07-15T09:41:40,42.805,6.029,CST-1368DR,6075,8507,15118,0.130,551
2020-07-15T09:44:42,42.805,6.029,CST-1368DR,6075,8507,15119,0.129,551
2020-07-15T09:47:44,42.805,6.029,CST-1368DR,6075,8507,15118,0.130,551
2020-07-15T09:50:46,42.805,6.029,CST-1368DR,6075,8507,15120,0.129,551
2020-07-15T09:53:47,42.805,6.029,CST-1368DR,6075,8507,15120,0.129,551
2020-07-15T09:56:49,42.805,6.029,CST-1368DR,6075,8506,15118,0.130,551
2020-07-15T09:59:51,42.805,6.029,CST-1368DR,6075,8507,15120,0.129,551
2020-07-15T10:02:52,42.805,6.029,CST-1368DR,6075,8507,15120,0.129,551
2020-07-15T10:05:54,42.805,6.029,CST-1368DR,6075,8506,15117,0.130,551
2020-07-15T10:08:56,42.805,6.029,CST-1368DR,6075,8505,15116,0.130,551
2020-07-15T10:11:58,42.805,6.029,CST-1368DR,6075,8505,15116,0.130,551
2020-07-15T10:14:59,42.805,6.029,CST-1368DR,6075,8505,15116,0.130,551
2020-07-15T10:18:01,42.805,6.029,CST-1368DR,6075,8502,15110,0.132,551
2020-07-15T10:21:03,42.805,6.029,CST-1368DR,6075,8506,15117,0.130,551
2020-07-15T10:24:04,42.805,6.029,CST-1368DR,6075,8506,15117,0.130,551
2020-07-15T10:27:06,42.805,6.029,CST-1368DR,6075,8506,15117,0.130,551
2020-07-15T10:30:08,42.805,6.029,CST-1368DR,6075,8506,15117,0.130,550
2020-07-15T10:33:09,42.805,6.029,CST-1368DR,6075,8506,15117,0.130,551
2020-07-15T10:36:11,42.805,6.029,CST-1368DR,6075,8506,15117,0.130,551
2020-07-15T10:39:13,42.805,6.029,CST-1368DR,6075,8505,15115,0.130,551
2020-07-15T10:42:15,42.805,6.029,CST-1368DR,6075,8505,15116,0.130,551
2020-07-15T10:45:16,42.805,6.029,CST-1368DR,6075,8505,15115,0.130,551
2020-07-15T10:48:18,42.805,6.029,CST-1368DR,6075,8505,15116,0.130,551
2020-07-15T10:51:20,42.805,6.029,CST-1368DR,6075,8504,15113,0.131,551
2020-07-15T10:54:21,42.805,6.029,CST-1368DR,6075,8506,15117,0.130,551
2020-07-15T10:57:23,42.805,6.029,CST-1368DR,6075,8505,15115,0.130,551
2020-07-15T11:00:25,42.805,6.029,CST-1368DR,6075,8505,15116,0.130,551
2020-07-15T11:03:27,42.805,6.029,CST-1368DR,6075,8506,15117,0.130,551
2020-07-15T11:06:29,42.805,6.029,CST-1368DR,6075,8505,15115,0.130,551
2020-07-15T11:09:30,42.805,6.029,CST-1368DR,6074,8505,15118,0.130,551
2020-07-15T11:12:32,42.805,6.029,CST-1368DR,6075,8506,15117,0.130,551
2020-07-15T11:15:34,42.805,6.029,CST-1368DR,6074,8505,15117,0.130,551
2020-07-15T11:18:36,42.805,6.029,CST-1368DR,6075,8504,15114,0.131,551
2020-07-15T11:21:37,42.805,6.029,CST-1368DR,6075,8506,15117,0.130,551
2020-07-15T11:24:39,42.805,6.029,CST-1368DR,6075,8505,15115,0.130,551
2020-07-15T11:27:41,42.805,6.029,CST-1368DR,6075,8506,15117,0.130,551
2020-07-15T11:30:42,42.805,6.029,CST-1368DR,6074,8503,15114,0.131,551
2020-07-15T11:33:44,42.805,6.029,CST-1368DR,6074,8505,15118,0.130,551
2020-07-15T11:36:46,42.805,6.029,CST-1368DR,6074,8505,15118,0.130,551
2020-07-15T11:39:48,42.805,6.029,CST-1368DR,6075,8505,15116,0.130,551
2020-07-15T11:42:49,42.805,6.029,CST-1368DR,6074,8504,15115,0.130,551
2020-07-15T11:45:51,42.805,6.029,CST-1368DR,6074,8506,15119,0.129,551
2020-07-15T11:48:53,42.805,6.029,CST-1368DR,6074,8505,15118,0.130,551
2020-07-15T11:51:54,42.805,6.029,CST-1368DR,6074,8506,15119,0.129,551
2020-07-15T11:54:56,42.805,6.029,CST-1368DR,6074,8505,15118,0.130,551
2020-07-15T11:57:58,42.805,6.029,CST-1368DR,6074,8504,15115,0.130,551
2020-07-15T12:00:59,42.805,6.029,CST-1368DR,6074,8505,15117,0.130,551
2020-07-15T12:04:01,42.805,6.029,CST-1368DR,6074,8506,15119,0.129,551
2020-07-15T12:07:03,42.805,6.029,CST-1368DR,6074,8505,15118,0.130,551
2020-07-15T12:10:05,42.805,6.029,CST-1368DR,6074,8505,15118,0.130,550
2020-07-15T12:13:06,42.805,6.029,CST-1368DR,6074,8505,15118,0.130,551
2020-07-15T12:16:08,42.805,6.029,CST-1368DR,6074,8506,15119,0.129,551
2020-07-15T12:19:10,42.805,6.029,CST-1368DR,6075,8505,15116,0.130,551
2020-07-15T12:22:11,42.805,6.029,CST-1368DR,6074,8505,15118,0.130,551
2020-07-15T12:25:13,42.805,6.029,CST-1368DR,6074,8505,15118,0.130,551
2020-07-15T12:28:15,42.805,6.029,CST-1368DR,6074,8505,15118,0.130,551
2020-07-15T12:31:17,42.805,6.029,CST-1368DR,6074,8505,15118,0.130,551
2020-07-15T12:34:19,42.805,6.029,CST-1368DR,6074,8505,15118,0.130,551
2020-07-15T12:37:21,42.805,6.029,CST-1368DR,6074,8505,15117,0.130,551
2020-07-15T12:40:22,42.805,6.029,CST-1368DR,6074,8506,15119,0.129,551
2020-07-15T12:43:24,42.805,6.029,CST-1368DR,6074,8505,15118,0.130,551
2020-07-15T12:46:26,42.805,6.029,CST-1368DR,6074,8504,15116,0.130,551
2020-07-15T12:49:27,42.805,6.029,CST-1368DR,6074,8505,15118,0.130,551
2020-07-15T12:52:29,42.805,6.029,CST-1368DR,6074,8503,15115,0.130,551
2020-07-15T12:55:31,42.805,6.029,CST-1368DR,6074,8505,15118,0.130,551
2020-07-15T12:58:32,42.805,6.029,CST-1368DR,6074,8505,15117,0.130,551
2020-07-15T13:01:34,42.805,6.029,CST-1368DR,6074,8502,15113,0.131,551
2020-07-15T13:04:36,42.805,6.029,CST-1368DR,6074,8502,15112,0.131,551
2020-07-15T13:07:37,42.805,6.029,CST-1368DR,6074,8506,15119,0.129,551
2020-07-15T13:10:39,42.805,6.029,CST-1368DR,6074,8504,15116,0.130,551
2020-07-15T13:13:41,42.805,6.029,CST-1368DR,6074,8505,15118,0.130,551
2020-07-15T13:16:43,42.805,6.029,CST-1368DR,6074,8503,15115,0.130,551
2020-07-15T13:19:44,42.805,6.029,CST-1368DR,6074,8503,15114,0.131,551
2020-07-15T13:22:46,42.805,6.029,CST-1368DR,6074,8505,15117,0.130,551
2020-07-15T13:25:48,42.805,6.029,CST-1368DR,6074,8504,15116,0.130,551
2020-07-15T13:28:49,42.805,6.029,CST-1368DR,6074,8505,15118,0.130,551
2020-07-15T13:31:51,42.805,6.029,CST-1368DR,6074,8506,15119,0.129,551
2020-07-15T13:34:53,42.805,6.029,CST-1368DR,6074,8505,15118,0.130,551
2020-07-15T13:37:54,42.805,6.029,CST-1368DR,6074,8503,15115,0.130,551
2020-07-15T13:40:56,42.805,6.029,CST-1368DR,6074,8504,15116,0.130,551
2020-07-15T13:43:58,42.805,6.029,CST-1368DR,6074,8505,15118,0.130,551
2020-07-15T13:47:00,42.805,6.029,CST-1368DR,6074,8505,15118,0.130,551
2020-07-15T13:50:01,42.805,6.029,CST-1368DR,6074,8504,15116,0.130,551
2020-07-15T13:53:03,42.805,6.029,CST-1368DR,6074,8503,15115,0.130,550
2020-07-15T13:56:05,42.805,6.029,CST-1368DR,6074,8504,15116,0.130,551
2020-07-15T13:59:06,42.805,6.029,CST-1368DR,6074,8505,15118,0.130,551
2020-07-15T14:02:08,42.805,6.029,CST-1368DR,6074,8504,15116,0.130,551
2020-07-15T14:05:10,42.805,6.029,CST-1368DR,6074,8505,15118,0.130,551
2020-07-15T14:08:12,42.805,6.029,CST-1368DR,6074,8505,15118,0.130,551
2020-07-15T14:11:13,42.805,6.029,CST-1368DR,6074,8505,15118,0.130,551
2020-07-15T14:14:15,42.805,6.029,CST-1368DR,6074,8505,15117,0.130,551
2020-07-15T14:17:17,42.805,6.029,CST-1368DR,6074,8505,15118,0.130,551
2020-07-15T14:20:19,42.805,6.029,CST-1368DR,6074,8505,15117,0.130,551
2020-07-15T14:23:20,42.805,6.029,CST-1368DR,6074,8504,15116,0.130,551
2020-07-15T14:26:22,42.805,6.029,CST-1368DR,6074,8504,15116,0.130,551
2020-07-15T14:29:24,42.805,6.029,CST-1368DR,6074,8505,15117,0.130,551
2020-07-15T14:32:25,42.805,6.029,CST-1368DR,6074,8505,15117,0.130,551
2020-07-15T14:35:27,42.805,6.029,CST-1368DR,6074,8504,15116,0.130,551
2020-07-15T14:38:29,42.805,6.029,CST-1368DR,6074,8503,15114,0.131,551
2020-07-15T14:41:30,42.805,6.029,CST-1368DR,6074,8504,15116,0.130,551
2020-07-15T14:44:32,42.805,6.029,CST-1368DR,6074,8504,15116,0.130,551
2020-07-15T14:47:34,42.805,6.029,CST-1368DR,6074,8504,15116,0.130,551
2020-07-15T14:50:35,42.805,6.029,CST-1368DR,6074,8505,15117,0.130,550
2020-07-15T14:53:37,42.805,6.029,CST-1368DR,6074,8504,15116,0.130,551
2020-07-15T14:56:39,42.805,6.029,CST-1368DR,6074,8504,15116,0.130,551
2020-07-15T14:59:41,42.805,6.029,CST-1368DR,6074,8505,15117,0.130,551
2020-07-15T15:02:42,42.805,6.029,CST-1368DR,6074,8503,15114,0.131,551
2020-07-15T15:05:44,42.805,6.029,CST-1368DR,6074,8503,15115,0.130,551
2020-07-15T15:08:46,42.805,6.029,CST-1368DR,6074,8504,15116,0.130,551
2020-07-15T15:11:47,42.805,6.029,CST-1368DR,6074,8504,15116,0.130,551
2020-07-15T15:14:49,42.805,6.029,CST-1368DR,6074,8504,15116,0.130,551
2020-07-15T15:17:51,42.805,6.029,CST-1368DR,6074,8504,15116,0.130,551
2020-07-15T15:20:53,42.805,6.029,CST-1368DR,6074,8504,15116,0.130,551
2020-07-15T15:23:54,42.805,6.029,CST-1368DR,6074,8503,15114,0.131,551
2020-07-15T15:26:56,42.805,6.029,CST-1368DR,6074,8504,15116,0.130,551
2020-07-15T15:29:58,42.805,6.029,CST-1368DR,6074,8505,15117,0.130,551
2020-07-15T15:32:59,42.805,6.029,CST-1368DR,6074,8504,15116,0.130,551
2020-07-15T15:36:01,42.805,6.029,CST-1368DR,6074,8504,15116,0.130,551
2020-07-15T15:39:03,42.805,6.029,CST-1368DR,6074,8503,15115,0.130,551
2020-07-15T15:42:04,42.805,6.029,CST-1368DR,6074,8503,15114,0.131,551
2020-07-15T15:45:06,42.805,6.029,CST-1368DR,6074,8504,15116,0.130,551
2020-07-15T15:48:08,42.805,6.029,CST-1368DR,6074,8504,15116,0.130,550
2020-07-15T15:51:10,42.805,6.029,CST-1368DR,6074,8503,15114,0.131,551
2020-07-15T15:54:11,42.805,6.029,CST-1368DR,6074,8504,15115,0.130,551
2020-07-15T15:57:13,42.805,6.029,CST-1368DR,6074,8505,15117,0.130,551
2020-07-15T16:00:15,42.805,6.029,CST-1368DR,6074,8503,15115,0.130,551
2020-07-15T16:03:16,42.805,6.029,CST-1368DR,6074,8503,15114,0.131,551
2020-07-15T16:06:18,42.805,6.029,CST-1368DR,6074,8504,15116,0.130,551
2020-07-15T16:09:20,42.805,6.029,CST-1368DR,6074,8504,15116,0.130,551
2020-07-15T16:12:21,42.805,6.029,CST-1368DR,6074,8505,15117,0.130,551
2020-07-15T16:15:23,42.805,6.029,CST-1368DR,6074,8502,15113,0.131,551
2020-07-15T16:18:25,42.805,6.029,CST-1368DR,6074,8504,15116,0.130,551
2020-07-15T16:21:26,42.805,6.029,CST-1368DR,6074,8504,15116,0.130,551
2020-07-15T16:24:28,42.805,6.029,CST-1368DR,6074,8504,15115,0.130,551
2020-07-15T16:27:30,42.805,6.029,CST-1368DR,6074,8504,15116,0.130,551
2020-07-15T16:30:31,42.805,6.029,CST-1368DR,6074,8503,15115,0.130,551
2020-07-15T16:33:33,42.805,6.029,CST-1368DR,6074,8505,15117,0.130,551
2020-07-15T16:36:35,42.805,6.029,CST-1368DR,6074,8503,15114,0.131,551
2020-07-15T16:39:36,42.805,6.029,CST-1368DR,6074,8505,15118,0.130,551
2020-07-15T16:42:38,42.805,6.029,CST-1368DR,6074,8503,15114,0.131,551
2020-07-15T16:45:40,42.805,6.029,CST-1368DR,6074,8504,15116,0.130,551
2020-07-15T16:48:41,42.805,6.029,CST-1368DR,6074,8504,15116,0.130,551
2020-07-15T16:51:43,42.805,6.029,CST-1368DR,6074,8504,15116,0.130,551